Location: Belfast
(54.5830°N, 5.9330°W)
Time: 06:52:42
(UTC+01:00)

ISS - Visible Passes

Search period start: 26 June 2022 00:00
Search period end: 06 July 2022 00:00
Orbit: 415 x 421 km, 51.6° (Epoch: 25 June)

Date Brightness Start Highest point End Pass type
(mag) Time Alt. Az. Time Alt. Az. Time Alt. Az.
30 Jun -1.1 03:35:12 10° SSE 03:36:29 11° SE 03:37:46 10° ESE visible
03 Jul -2.2 03:34:23 10° SSW 03:37:35 28° SSE 03:41:00 10° E visible
04 Jul -2.2 03:08:30 14° SSW 03:11:09 27° SSE 03:14:34 10° E visible
05 Jul -2.2 02:45:14 16° SSW 02:47:26 27° SSE 02:50:55 10° E visible
